Location: Molino di Ancona
(43.6167°N, 13.3667°E)
Time: 08:23:37
(UTC+00:00)

Cosmos 1666 - Pass Details

Date: 15 December 2019
Orbit: 498 x 521 km, 82.5° (Epoch: 18 January)

Event Time Altitude Azimuth Distance (km) Brightness Sun altitude
Rises 05:40:01 0° 200° (SSW) 2,618 6.3 -9.3°
Reaches altitude 10° 05:42:12 10° 206° (SSW) 1,732 5.4 -8.9°
Maximum altitude 05:45:53 48° 281° (WNW) 676 2.9 -8.3°
Drops below altitude 10° 05:49:34 10° 357° (N) 1,733 5.1 -7.7°
Sets 05:51:45 0° 3° (N) 2,619 6.1 -7.3°
